COSMOS 2491 DEB, 45129

Orbit data source: Space-Track

COSMOS 2491 DEB, 45129 is space debris in LEO originally from a launch on Wed, 25 Dec 2013 UTC launched from the Plesetsk Missile And Space Complex (PKMTR). Debris objects in space refer to the collection of defunct objects orbiting the Earth. Examples of debris include non-operational satellites, rocket bodies, and fragments generated from explosions, collisions, or faulty payload assembly.

Loading next visibility...
Identifier
45129, 2013-076AB
Orbit
LEO
Country
Flag of CISCIS
Related business
Manufacturer
TsNIIKhM
Mission
Spacecraft
Bus & Motor
Unknown
Mass
Unknown
Launch date (UTC)
2013-12-25 (12 years ago)
Launch vehicle
Unknown
Launch site
Plesetsk Missile And Space Complex (PKMTR)
Object type
Payload
Rocket body
Debris
Shape & HBR
Unknown shape, 0.1 m
Radar Cross Section
Small (<0.1 m²)

Expand to show TLE details & history
Last TLE update: 1 day ago

TLE from 1 day ago
0 COSMOS 2491 DEB
1 45129U 13076AB  25307.16136327  .00003832  00000-0  18026-1 0  9998
2 45129  82.4459 259.8870 0217586 322.1590  36.4374 12.67976680130424
Epoch: 2025-11-03T03:52Z
TLE epoch observation values (Epoch: 2025-11-03T03:52:21.786Z)
Latitude
-0.00009°
Longitude
159.1295°
Altitude
1,258.255 km
Speed
7.289 km/s
True Right ascension
17h 19m 32s
True Declination
0° 00' 00"
Sunlit
Object was in daylight at epoch
Visualization orbit readout
Latitude
Unknown
Longitude
Unknown
Altitude
Unknown
Speed
Unknown
Apparent Right ascension
Unknown
Apparent Declination
Unknown
Sunlit
N/A
Visualization observer readout
Local Sidereal Time
06:59:26
Azimuth
Unknown
Elevation
Unknown
Doppler factor
Unknown
Orbital elements
Apogee altitude
1,556.478 km
Perigee altitude
1,218.539 km
Semi-major axis
7,765.646 km
Eccentricity
0.02176
Inclination
82.4459°
RAAN
259.887°
Arg. of periapsis
322.159°
True anomaly
37.95123°
Mean anomaly
36.4374°
Eccentric anomaly
37.19098°
Mean motion
3.17159 °/min
Orbital period
113.51 mins
BSTAR
0.018026
Loading maneuver chart data...
Computing Atmospheric mass density...
Loading historical data...
Loading historical data...
Loading historical data...
Loading historical data...
Loading historical data...
Loading historical data...
Loading historical data...

Documentation

Showing up to 5 results
|